• In Romania
  • List of Countries
  • For 7 days
  • Water Temperature
  • Satellite Maps
  • Weather Map
  • Weather Widgets
  • user-avatar
    Login

    Hourly Weather Darwin

    Today, 22 February, Wednesday

    Time Temperature Precipitation Wind Pressure Humidity
    00:00 +28°C° 0 mm 3 mps 757 mmHg 76%
    01:00 +27°C° 0 mm 2 mps 757 mmHg 77%
    02:00 +27°C° 0 mm 2 mps 757 mmHg 79%
    03:00 +26°C° 0 mm 2 mps 757 mmHg 79%
    04:00 +26°C° 0 mm 2 mps 757 mmHg 78%
    05:00 +26°C° 0 mm 2 mps 757 mmHg 78%
    06:00 +26°C° 0 mm 2 mps 757 mmHg 77%
    07:00 +28°C° 0 mm 3 mps 758 mmHg 71%
    08:00 +30°C° 0 mm 3 mps 758 mmHg 64%
    09:00 +33°C° 0 mm 3 mps 758 mmHg 57%
    10:00 +34°C° 0 mm 3 mps 758 mmHg 50%
    11:00 +36°C° 0 mm 3 mps 758 mmHg 43%
    12:00 +37°C° 0 mm 3 mps 757 mmHg 37%
    13:00 +38°C° 0 mm 4 mps 757 mmHg 36%
    14:00 +38°C° 0 mm 4 mps 756 mmHg 36%
    15:00 +37°C° 0 mm 4 mps 756 mmHg 38%
    16:00 +36°C° 0 mm 4 mps 756 mmHg 46%
    17:00 +35°C° 0 mm 4 mps 756 mmHg 54%
    18:00 +34°C° 0 mm 5 mps 756 mmHg 62%
    19:00 +32°C° 0 mm 4 mps 756 mmHg 66%
    20:00 +30°C° 0 mm 4 mps 757 mmHg 70%
    21:00 +29°C° 0 mm 4 mps 757 mmHg 74%
    22:00 +28°C° 0 mm 4 mps 757 mmHg 74%
    23:00 +28°C° 0 mm 4 mps 757 mmHg 74%

    Tomorrow, 23 February, Thursday

    Time Temperature Precipitation Wind Pressure Humidity
    00:00 +28°C° 0 mm 3 mps 757 mmHg 74%
    01:00 +27°C° 0 mm 3 mps 757 mmHg 74%
    02:00 +27°C° 0 mm 3 mps 756 mmHg 73%
    03:00 +27°C° 0 mm 3 mps 756 mmHg 73%
    04:00 +26°C° 0 mm 3 mps 756 mmHg 74%
    05:00 +26°C° 0 mm 3 mps 756 mmHg 74%
    06:00 +26°C° 0 mm 3 mps 757 mmHg 74%
    07:00 +28°C° 0 mm 3 mps 757 mmHg 70%
    08:00 +30°C° 0 mm 3 mps 757 mmHg 65%
    09:00 +33°C° 0 mm 3 mps 757 mmHg 60%
    10:00 +34°C° 0 mm 3 mps 757 mmHg 54%
    11:00 +36°C° 0 mm 2 mps 757 mmHg 47%
    12:00 +38°C° 0 mm 2 mps 757 mmHg 40%
    13:00 +39°C° 0 mm 3 mps 756 mmHg 39%
    14:00 +39°C° 0 mm 3 mps 755 mmHg 38%
    15:00 +39°C° 0 mm 3 mps 755 mmHg 36%
    16:00 +37°C° 0 mm 4 mps 755 mmHg 47%
    17:00 +36°C° 0 mm 4 mps 755 mmHg 58%
    18:00 +34°C° 0 mm 4 mps 755 mmHg 70%
    19:00 +33°C° 0 mm 4 mps 755 mmHg 74%
    20:00 +32°C° 0 mm 4 mps 756 mmHg 79%
    21:00 +29°C° 0 mm 4 mps 756 mmHg 84%
    22:00 +29°C° 0 mm 4 mps 757 mmHg 84%
    23:00 +29°C° 0 mm 3 mps 757 mmHg 85%

    Day after tomorrow, 24 February, Friday

    Time Temperature Precipitation Wind Pressure Humidity
    00:00 +29°C° 0 mm 3 mps 757 mmHg 85%
    01:00 +29°C° 0 mm 3 mps 757 mmHg 86%
    02:00 +29°C° 0 mm 3 mps 756 mmHg 87%
    03:00 +29°C° 0 mm 3 mps 756 mmHg 88%
    04:00 +28°C° 0.1 mm 3 mps 756 mmHg 89%
    05:00 +28°C° 0.1 mm 3 mps 757 mmHg 90%
    06:00 +28°C° 0.1 mm 2 mps 757 mmHg 91%
    07:00 +29°C° 0 mm 2 mps 757 mmHg 83%
    08:00 +31°C° 0 mm 2 mps 758 mmHg 75%
    09:00 +34°C° 0 mm 2 mps 758 mmHg 68%
    10:00 +35°C° 0 mm 2 mps 758 mmHg 62%
    11:00 +36°C° 0 mm 2 mps 758 mmHg 57%
    12:00 +37°C° 0 mm 2 mps 757 mmHg 51%
    13:00 +37°C° 0.1 mm 2 mps 757 mmHg 52%
    14:00 +37°C° 0.1 mm 3 mps 756 mmHg 52%
    15:00 +37°C° 0.1 mm 3 mps 756 mmHg 53%
    16:00 +35°C° 0.1 mm 3 mps 756 mmHg 58%
    17:00 +34°C° 0.1 mm 2 mps 756 mmHg 63%
    18:00 +32°C° 0.1 mm 2 mps 756 mmHg 68%
    19:00 +31°C° 0 mm 2 mps 756 mmHg 71%
    20:00 +30°C° 0 mm 2 mps 757 mmHg 74%
    21:00 +29°C° 0 mm 1 mps 758 mmHg 77%
    22:00 +29°C° 0 mm 1 mps 758 mmHg 78%
    23:00 +29°C° 0 mm 1 mps 758 mmHg 79%

    25 February, Saturday

    Time Temperature Precipitation Wind Pressure Humidity
    00:00 +28°C° 0 mm 1 mps 758 mmHg 81%
    01:00 +28°C° 0 mm 1 mps 757 mmHg 82%
    02:00 +28°C° 0 mm 1 mps 757 mmHg 83%
    03:00 +27°C° 0 mm 1 mps 757 mmHg 85%
    04:00 +27°C° 0 mm 1 mps 757 mmHg 85%
    05:00 +27°C° 0 mm 1 mps 757 mmHg 84%
    06:00 +27°C° 0 mm 1 mps 757 mmHg 84%
    07:00 +29°C° 0.2 mm 1 mps 758 mmHg 77%
    08:00 +31°C° 0.2 mm 1 mps 758 mmHg 71%
    09:00 +33°C° 0.2 mm 1 mps 758 mmHg 64%
    10:00 +34°C° 0.2 mm 1 mps 758 mmHg 61%
    11:00 +35°C° 0.2 mm 1 mps 758 mmHg 57%
    12:00 +37°C° 0.2 mm 1 mps 757 mmHg 54%
    13:00 +37°C° 1.5 mm 2 mps 757 mmHg 58%
    14:00 +36°C° 1.5 mm 2 mps 756 mmHg 62%
    15:00 +35°C° 1.5 mm 3 mps 755 mmHg 66%
    16:00 +34°C° 1 mm 3 mps 755 mmHg 71%
    17:00 +33°C° 1 mm 3 mps 756 mmHg 75%
    18:00 +31°C° 1 mm 3 mps 756 mmHg 80%
    19:00 +30°C° 0.3 mm 3 mps 756 mmHg 81%
    20:00 +30°C° 0.3 mm 3 mps 757 mmHg 83%
    21:00 +29°C° 0.3 mm 3 mps 757 mmHg 84%
    22:00 +29°C° 0.5 mm 3 mps 757 mmHg 85%
    23:00 +28°C° 0.5 mm 3 mps 757 mmHg 86%

    26 February, Sunday

    Time Temperature Precipitation Wind Pressure Humidity
    00:00 +28°C° 0.5 mm 3 mps 757 mmHg 87%
    01:00 +28°C° 0.3 mm 2 mps 757 mmHg 88%
    02:00 +28°C° 0.3 mm 2 mps 756 mmHg 88%
    03:00 +28°C° 0.3 mm 2 mps 755 mmHg 88%
    04:00 +28°C° 0 mm 2 mps 756 mmHg 89%
    05:00 +27°C° 0 mm 2 mps 756 mmHg 89%
    06:00 +27°C° 0 mm 2 mps 756 mmHg 89%
    07:00 +29°C° 0 mm 2 mps 756 mmHg 84%
    08:00 +30°C° 0 mm 2 mps 757 mmHg 78%
    09:00 +32°C° 0 mm 2 mps 757 mmHg 73%
    10:00 +35°C° 0 mm 2 mps 756 mmHg 65%
    11:00 +37°C° 0 mm 2 mps 756 mmHg 57%
    12:00 +38°C° 0 mm 2 mps 756 mmHg 49%
    13:00 +37°C° 1.7 mm 2 mps 755 mmHg 54%
    14:00 +36°C° 1.7 mm 2 mps 754 mmHg 59%
    15:00 +35°C° 1.7 mm 3 mps 754 mmHg 64%
    16:00 +34°C° 1.5 mm 3 mps 754 mmHg 69%
    17:00 +34°C° 1.5 mm 2 mps 755 mmHg 73%
    18:00 +32°C° 1.5 mm 2 mps 755 mmHg 78%
    19:00 +31°C° 1.1 mm 2 mps 755 mmHg 80%
    20:00 +30°C° 1.1 mm 1 mps 756 mmHg 82%
    21:00 +30°C° 1.1 mm 1 mps 756 mmHg 85%
    22:00 +29°C° 0.7 mm 1 mps 756 mmHg 84%
    23:00 +29°C° 0.7 mm 1 mps 756 mmHg 84%

    27 February, Monday

    Time Temperature Precipitation Wind Pressure Humidity
    00:00 +29°C° 0.7 mm 1 mps 756 mmHg 84%
    01:00 +29°C° 0.4 mm 1 mps 756 mmHg 85%
    02:00 +29°C° 0.4 mm 1 mps 756 mmHg 86%
    03:00 +28°C° 0.4 mm 1 mps 755 mmHg 86%
    04:00 +28°C° 0 mm 1 mps 756 mmHg 86%
    05:00 +28°C° 0 mm 1 mps 756 mmHg 86%
    06:00 +28°C° 0 mm 1 mps 756 mmHg 85%
    07:00 +29°C° 0 mm 1 mps 757 mmHg 81%
    08:00 +30°C° 0 mm 1 mps 757 mmHg 78%
    09:00 +31°C° 0 mm 1 mps 757 mmHg 74%
    10:00 +33°C° 0.1 mm 1 mps 757 mmHg 66%
    11:00 +35°C° 0.1 mm 1 mps 756 mmHg 58%
    12:00 +36°C° 0.1 mm 1 mps 756 mmHg 50%
    13:00 +36°C° 0.7 mm 1 mps 755 mmHg 52%
    14:00 +36°C° 0.7 mm 1 mps 755 mmHg 54%
    15:00 +36°C° 0.7 mm 2 mps 754 mmHg 55%
    16:00 +36°C° 0.3 mm 2 mps 754 mmHg 61%
    17:00 +35°C° 0.3 mm 2 mps 754 mmHg 66%
    18:00 +34°C° 0.3 mm 2 mps 754 mmHg 72%
    19:00 +32°C° 0.6 mm 2 mps 755 mmHg 74%
    20:00 +31°C° 0.6 mm 2 mps 755 mmHg 76%
    21:00 +30°C° 0.6 mm 2 mps 756 mmHg 77%
    22:00 +29°C° 0.8 mm 2 mps 756 mmHg 79%
    23:00 +29°C° 0.8 mm 1 mps 756 mmHg 80%
    Show more